Location: Dana
(41.8364°N, 106.7042°W)
Time: 00:38:13
(UTC+00:00)

S-56A Canister/Altair - Visible Passes

Search period start: 12 May 2026 00:00
Search period end: 22 May 2026 00:00
Orbit: 633 x 2484 km, 38.9° (Epoch: 11 May)

Date Brightness Start Highest point End Pass type
(mag) Time Alt. Az. Time Alt. Az. Time Alt. Az.
12 May 8.2 04:04:26 10° SW 04:07:15 26° S 04:07:15 26° S visible
12 May 9.2 08:17:54 31° SE 08:17:54 31° SE 08:22:17 10° ESE visible
12 May 9.3 10:15:14 20° WSW 10:18:31 28° SSW 10:26:10 10° SSE visible
13 May 8.2 03:29:58 10° SSW 03:33:35 24° SSE 03:35:11 20° ESE visible
13 May 9.5 05:32:02 10° WSW 05:32:31 13° WSW 05:32:31 13° WSW visible
13 May 10.2 07:46:02 13° ESE 07:46:02 13° ESE 07:46:48 10° ESE visible
13 May 9.0 09:43:23 29° SSW 09:43:29 29° SSW 09:50:50 10° SSE visible
14 May 8.5 02:55:30 10° SSW 02:58:53 20° SSE 03:02:11 10° ESE visible
14 May 8.0 04:57:23 10° WSW 05:00:13 37° SW 05:00:13 37° SW visible
14 May 9.6 09:11:47 22° SSE 09:11:47 22° SSE 09:15:31 10° SE visible
14 May 10.1 11:10:51 10° SW 11:12:20 11° SW 11:13:54 10° SSW visible
15 May 7.3 04:22:42 10° WSW 04:26:59 49° SSE 04:27:43 45° SE visible
15 May 10.0 10:37:44 12° SSW 10:37:44 12° SSW 10:40:02 10° SSW visible
16 May 7.4 03:47:58 10° WSW 03:52:17 45° SSE 03:55:02 20° ESE visible
16 May 9.1 05:50:59 10° W 05:52:18 19° W 05:52:18 19° W visible
17 May 7.6 03:13:12 10° SW 03:17:35 40° SSE 03:21:47 10° E visible
17 May 7.7 05:16:17 10° W 05:19:28 44° WSW 05:19:28 44° WSW visible
18 May 7.1 04:41:32 10° W 04:45:56 61° S 04:46:31 55° SE visible
19 May 7.1 04:06:44 10° WSW 04:11:12 60° S 04:13:29 27° ESE visible
19 May 9.5 06:10:05 10° W 06:10:44 14° W 06:10:44 14° W visible
20 May 7.2 03:31:49 10° WSW 03:36:29 59° S 03:40:25 13° E visible
20 May 8.5 05:35:21 10° W 05:37:39 28° WSW 05:37:39 28° WSW visible
21 May 7.4 02:56:51 10° WSW 03:01:46 56° S 03:06:06 10° E visible
21 May 7.4 05:00:34 10° W 05:04:31 49° SSW 05:04:31 49° SSW visible
